Weather History for Belize, Belize

Change the Weather History Date:

Tuesday, March 25, 2014

  Actual Average Record
Temperature  
Mean Temperature 80 °F -  
Max Temperature 87 °F 87 °F 89 °F (2005)
Min Temperature 74 °F 73 °F 68 °F (2008)
Cooling Degree Days 16    
Growing Degree Days 30 (Base 50)    
Moisture  
Dew Point 75 °F    
Average Humidity 79    
Maximum Humidity 100    
Minimum Humidity 59    
Precipitation  
Precipitation 0.00 in 0.07 in - ()
Sea Level Pressure  
Sea Level Pressure 29.95 in    
Wind  
Wind Speed 4 mph ()    
Max Wind Speed 9 mph    
Max Gust Speed -    
Visibility 8.1 miles    
Events      
Averages and records for this station are not official NWS values.
T = Trace of Precipitation, MM = Missing Value Source: Averaged Metar Reports

Daily Weather History Graph

Daily Weather History Graph

Search for Another Location

Airport:

Trip Planner

Search our weather history database for the weather conditions in past years. The results will help you decide how hot, cold, wet, or windy it might be!

Date:

Astronomy

Mar. 25, 2014 Rise Set
Actual Time 5:53 AM CST 6:05 PM CST
Civil Twilight 5:31 AM CST 6:26 PM CST
Nautical Twilight 5:06 AM CST 6:52 PM CST
Astronomical Twilight 4:41 AM CST 7:17 PM CST
Moon 1:32 AM CST (3/25) 1:16 PM CST (3/25)
Length of Visible Light 12h 55m
Length of Day
12h 11m
Waning Crescent, 31% of the Moon is Illuminated
Mar 25
Waning Crescent
Mar 30
New
Apr 7
First Quarter
Apr 15
Full
Apr 22
Last Quarter

Hourly Weather History & Observations

Time (CST) Temp. Heat Index Dew Point Humidity Pressure Visibility Wind Dir Wind Speed Gust Speed Precip Events Conditions
12:00 AM 77 °F - 74 °F 89% 29.95 in 12 mi ESE 3.5 mph - -   Scattered Clouds
3:00 AM 76 °F - 74 °F 91% 29.91 in 12 mi ESE 3.5 mph - -   Scattered Clouds
5:00 AM 75.2 °F - 73.4 °F 94% 29.89 in 6.2 mi ESE 2.3 mph - N/A   Partly Cloudy
6:00 AM 75 °F - 73 °F 90% 29.93 in 12 mi Calm Calm - -   Partly Cloudy
6:00 AM 75.2 °F - 73.4 °F 94% 29.93 in 6.2 mi Calm Calm - N/A   Scattered Clouds
7:00 AM 75.2 °F - 75.2 °F 100% 29.95 in 6.2 mi Calm Calm - N/A   Scattered Clouds
8:00 AM 80.6 °F 86.2 °F 75.2 °F 84% 29.98 in 6.2 mi Calm Calm - N/A   Scattered Clouds
9:00 AM 82 °F - 76 °F 76% 30.00 in 11 mi East 4.6 mph - -   Mostly Cloudy
9:00 AM 82.4 °F 89.5 °F 75.2 °F 79% 29.99 in 6.2 mi East 4.6 mph - N/A   Mostly Cloudy
10:00 AM 84.2 °F 92.3 °F 75.2 °F 74% 29.99 in 6.2 mi NE 8.1 mph - N/A   Scattered Clouds
11:00 AM 86.0 °F 95.1 °F 75.2 °F 70% 29.98 in 6.2 mi ENE 8.1 mph - N/A   Scattered Clouds
12:00 PM 87 °F - 75 °F 59% 29.96 in 11 mi East 9.2 mph - -   Partly Cloudy
12:00 PM 86.0 °F 95.1 °F 75.2 °F 70% 29.95 in 6.2 mi East 9.2 mph - N/A   Scattered Clouds
1:00 PM 86.0 °F 93.4 °F 73.4 °F 66% 29.93 in 6.2 mi ENE 9.2 mph - N/A   Partly Cloudy
2:00 PM 86.0 °F 95.1 °F 75.2 °F 70% 29.92 in 6.2 mi ENE 9.2 mph - N/A   Partly Cloudy
3:00 PM 87 °F - 77 °F 66% 29.91 in 11 mi East 9.2 mph - -   Scattered Clouds
3:00 PM 86.0 °F 96.9 °F 77.0 °F 74% 29.91 in 6.2 mi East 9.2 mph - N/A   Partly Cloudy
4:00 PM 86.0 °F 95.1 °F 75.2 °F 70% 29.92 in 6.2 mi East 8.1 mph - N/A   Partly Cloudy
5:00 PM 84.2 °F 92.3 °F 75.2 °F 74% 29.93 in 6.2 mi East 8.1 mph - N/A   Partly Cloudy
6:00 PM 82 °F - 75 °F 75% 29.95 in 12 mi East 5.8 mph - -   Scattered Clouds
6:00 PM 82.4 °F 89.5 °F 75.2 °F 79% 29.94 in 6.2 mi East 5.8 mph - N/A   Partly Cloudy
7:00 PM 80.6 °F 86.2 °F 75.2 °F 84% 29.96 in 6.2 mi East 5.8 mph - N/A   Partly Cloudy
9:00 PM 78 °F - 75 °F 88% 30.00 in 12 mi ESE 2.3 mph - -